QPF
0.00 0.00 0.00 0.01 0.03 0.02 0.00 0.00 0.01 0.01 0.00 0.00 0.00 0.01 0.00 0.01 0.04 0.07 0.11 0.07 0.05 0.04 0.04 0.05 0.10 0.10 0.09 0.10 0.10 0.11 0.11 0.09 0.08 0.07 0.08 0.06 0.08 0.09 0.11 0.11 0.09 0.09 0.09 0.08 0.07 0.04 0.03 0.02 0.01
0.00 0.00 0.00 0.01 0.02 0.00 0.01 0.00 0.01 0.02 0.00 0.00 0.01 0.02 0.02 0.01 0.02 0.05 0.08 0.07 0.04 0.02 0.03 0.03 0.07 0.07 0.07 0.08 0.08 0.08 0.09 0.09 0.09 0.07 0.07 0.08 0.11 0.11 0.12 0.11 0.09 0.09 0.08 0.08 0.06 0.04 0.02 0.02 0.01
0.00 0.00 0.00 0.01 0.00 0.00 0.00 0.00 0.01 0.01 0.00 0.00 0.01 0.02 0.03 0.03 0.03 0.06 0.06 0.04 0.03 0.02 0.03 0.03 0.05 0.04 0.05 0.07 0.08 0.08 0.08 0.09 0.10 0.09 0.10 0.13 0.11 0.10 0.11 0.10 0.11 0.10 0.08 0.07 0.05 0.03 0.02 0.01 0.01
0.00 0.00 0.01 0.00 0.00 0.00 0.00 0.00 0.01 0.01 0.00 0.00 0.01 0.03 0.03 0.03 0.03 0.04 0.04 0.03 0.01 0.02 0.03 0.02 0.03 0.03 0.04 0.05 0.05 0.08 0.11 0.13 0.13 0.11 0.11 0.11 0.11 0.13 0.11 0.10 0.09 0.10 0.09 0.07 0.06 0.04 0.02 0.02 0.02
0.00 0.00 0.01 0.00 0.00 0.00 0.00 0.00 0.00 0.01 0.01 0.01 0.01 0.02 0.05 0.04 0.02 0.03 0.03 0.02 0.01 0.02 0.02 0.02 0.02 0.03 0.03 0.04 0.03 0.05 0.08 0.10 0.11 0.11 0.13 0.15 0.15 0.13 0.10 0.08 0.08 0.10 0.09 0.07 0.06 0.04 0.02 0.02 0.02
0.00 0.00 0.00 0.00 0.00 0.00 0.00 0.00 0.00 0.01 0.01 0.01 0.00 0.01 0.04 0.06 0.05 0.05 0.04 0.03 0.02 0.01 0.01 0.02 0.03 0.03 0.03 0.02 0.03 0.03 0.03 0.04 0.06 0.07 0.09 0.12 0.11 0.10 0.09 0.08 0.07 0.08 0.06 0.06 0.06 0.05 0.02 0.02 0.02
0.00 0.00 0.00 0.00 0.00 0.00 0.00 0.00 0.00 0.00 0.01 0.01 0.01 0.00 0.04 0.07 0.06 0.04 0.04 0.03 0.02 0.01 0.01 0.03 0.04 0.03 0.01 0.01 0.02 0.02 0.02 0.02 0.02 0.02 0.03 0.05 0.06 0.07 0.09 0.09 0.07 0.06 0.04 0.06 0.07 0.05 0.02 0.02 0.02
0.00 0.00 0.00 0.00 0.00 0.00 0.00 0.00 0.00 0.00 0.00 0.00 0.00 0.01 0.03 0.04 0.03 0.03 0.03 0.02 0.02 0.02 0.03 0.05 0.05 0.04 0.03 0.02 0.01 0.02 0.02 0.03 0.02 0.01 0.02 0.03 0.04 0.05 0.05 0.07 0.07 0.04 0.04 0.09 0.09 0.05 0.02 0.02 0.02
0.00 0.00 0.00 0.00 0.00 0.00 0.00 0.00 0.00 0.00 0.00 0.00 0.00 0.00 0.01 0.02 0.02 0.03 0.03 0.03 0.02 0.02 0.04 0.06 0.04 0.04 0.03 0.03 0.02 0.03 0.02 0.03 0.04 0.03 0.02 0.04 0.06 0.05 0.05 0.05 0.04 0.04 0.03 0.10 0.09 0.05 0.03 0.02 0.02
0.00 0.00 0.00 0.00 0.00 0.00 0.00 0.00 0.00 0.00 0.00 0.00 0.00 0.00 0.00 0.01 0.02 0.03 0.06 0.05 0.02 0.03 0.04 0.06 0.05 0.03 0.02 0.03 0.03 0.05 0.04 0.05 0.05 0.05 0.05 0.07 0.07 0.06 0.04 0.03 0.02 0.02 0.03 0.08 0.08 0.06 0.06 0.05 0.04
0.00 0.00 0.00 0.00 0.00 0.00 0.00 0.00 0.00 0.00 0.00 0.00 0.00 0.00 0.00 0.00 0.01 0.03 0.04 0.04 0.02 0.02 0.04 0.05 0.05 0.05 0.03 0.02 0.02 0.02 0.03 0.04 0.05 0.04 0.04 0.05 0.05 0.03 0.03 0.03 0.04 0.03 0.04 0.08 0.12 0.07 0.06 0.05 0.05
0.00 0.00 0.00 0.00 0.00 0.00 0.00 0.00 0.00 0.00 0.00 0.00 0.00 0.00 0.00 0.00 0.01 0.02 0.03 0.03 0.02 0.02 0.03 0.04 0.05 0.06 0.04 0.01 0.02 0.02 0.01 0.02 0.03 0.03 0.03 0.05 0.06 0.05 0.03 0.04 0.03 0.03 0.05 0.11 0.13 0.08 0.06 0.05 0.04
0.00 0.00 0.00 0.00 0.00 0.00 0.00 0.00 0.00 0.00 0.00 0.00 0.00 0.00 0.00 0.00 0.01 0.02 0.02 0.04 0.03 0.02 0.03 0.04 0.04 0.05 0.05 0.03 0.03 0.02 0.01 0.01 0.02 0.02 0.02 0.03 0.06 0.05 0.05 0.04 0.03 0.01 0.02 0.06 0.10 0.08 0.07 0.06 0.03
0.00 0.00 0.00 0.00 0.00 0.00 0.00 0.01 0.00 0.00 0.00 0.00 0.00 0.00 0.00 0.01 0.01 0.01 0.01 0.02 0.03 0.03 0.04 0.04 0.04 0.04 0.05 0.05 0.03 0.02 0.01 0.01 0.01 0.01 0.01 0.01 0.04 0.06 0.07 0.06 0.04 0.02 0.02 0.04 0.05 0.05 0.06 0.04 0.05
0.00 0.00 0.00 0.00 0.00 0.00 0.01 0.02 0.01 0.00 0.00 0.00 0.00 0.00 0.00 0.01 0.01 0.01 0.01 0.02 0.02 0.03 0.04 0.05 0.04 0.04 0.04 0.04 0.03 0.03 0.02 0.00 0.00 0.01 0.01 0.01 0.03 0.06 0.07 0.07 0.07 0.05 0.03 0.05 0.05 0.06 0.06 0.06 0.06
0.00 0.00 0.00 0.00 0.00 0.00 0.01 0.01 0.01 0.00 0.00 0.00 0.00 0.00 0.00 0.01 0.01 0.01 0.02 0.02 0.01 0.02 0.05 0.06 0.03 0.05 0.04 0.05 0.04 0.03 0.03 0.01 0.00 0.00 0.00 0.01 0.02 0.03 0.06 0.07 0.06 0.05 0.06 0.07 0.08 0.09 0.07 0.07 0.07
0.00 0.00 0.00 0.00 0.00 0.00 0.00 0.00 0.00 0.00 0.00 0.00 0.00 0.00 0.00 0.00 0.01 0.02 0.02 0.01 0.01 0.01 0.03 0.06 0.05 0.03 0.03 0.04 0.03 0.03 0.03 0.02 0.02 0.02 0.01 0.03 0.03 0.04 0.05 0.06 0.06 0.06 0.08 0.08 0.07 0.11 0.09 0.07 0.09
0.00 0.00 0.00 0.00 0.00 0.00 0.00 0.00 0.00 0.00 0.00 0.00 0.00 0.00 0.00 0.00 0.00 0.00 0.01 0.01 0.01 0.01 0.01 0.03 0.04 0.03 0.03 0.04 0.04 0.06 0.05 0.04 0.03 0.04 0.03 0.04 0.05 0.05 0.06 0.07 0.08 0.08 0.08 0.08 0.09 0.11 0.10 0.09 0.11
0.00 0.00 0.00 0.00 0.00 0.00 0.00 0.00 0.00 0.00 0.00 0.00 0.00 0.00 0.00 0.00 0.00 0.00 0.00 0.00 0.01 0.01 0.01 0.01 0.02 0.03 0.03 0.04 0.05 0.06 0.05 0.04 0.04 0.03 0.04 0.04 0.03 0.05 0.08 0.07 0.11 0.10 0.10 0.10 0.09 0.11 0.10 0.11 0.11
0.00 0.00 0.00 0.00 0.00 0.00 0.00 0.00 0.00 0.00 0.00 0.00 0.00 0.00 0.00 0.00 0.00 0.00 0.00 0.00 0.00 0.01 0.01 0.01 0.01 0.01 0.02 0.03 0.04 0.04 0.04 0.03 0.04 0.03 0.06 0.06 0.03 0.04 0.06 0.09 0.09 0.10 0.11 0.10 0.11 0.14 0.13 0.12 0.14
0.00 0.00 0.00 0.00 0.00 0.00 0.00 0.00 0.00 0.00 0.00 0.00 0.00 0.00 0.00 0.00 0.00 0.00 0.00 0.00 0.00 0.00 0.00 0.00 0.01 0.01 0.02 0.03 0.03 0.03 0.03 0.03 0.04 0.04 0.05 0.04 0.03 0.03 0.03 0.06 0.08 0.10 0.10 0.10 0.09 0.10 0.13 0.15 0.15
0.00 0.00 0.00 0.00 0.00 0.01 0.00 0.01 0.01 0.00 0.01 0.00 0.00 0.00 0.00 0.00 0.00 0.00 0.00 0.00 0.00 0.00 0.00 0.00 0.00 0.01 0.02 0.02 0.03 0.03 0.03 0.03 0.03 0.04 0.04 0.03 0.03 0.03 0.02 0.03 0.07 0.09 0.09 0.11 0.07 0.09 0.12 0.13 0.14
0.00 0.00 0.00 0.00 0.00 0.00 0.00 0.01 0.01 0.00 0.00 0.00 0.00 0.00 0.00 0.00 0.00 0.00 0.00 0.01 0.00 0.00 0.00 0.00 0.00 0.01 0.02 0.02 0.02 0.03 0.02 0.03 0.03 0.03 0.04 0.05 0.06 0.04 0.02 0.04 0.07 0.07 0.08 0.09 0.09 0.11 0.11 0.11 0.11
0.00 0.00 0.00 0.00 0.00 0.00 0.00 0.01 0.00 0.00 0.00 0.00 0.00 0.00 0.00 0.00 0.00 0.00 0.00 0.00 0.00 0.00 0.00 0.00 0.00 0.01 0.01 0.01 0.02 0.03 0.04 0.04 0.04 0.05 0.07 0.07 0.09 0.07 0.05 0.05 0.07 0.08 0.07 0.08 0.09 0.09 0.09 0.10 0.11
0.00 0.00 0.01 0.00 0.00 0.00 0.00 0.00 0.00 0.00 0.00 0.00 0.00 0.00 0.00 0.00 0.00 0.00 0.00 0.00 0.00 0.00 0.00 0.00 0.00 0.01 0.01 0.02 0.02 0.02 0.03 0.04 0.05 0.05 0.07 0.08 0.09 0.09 0.08 0.08 0.09 0.08 0.08 0.07 0.09 0.11 0.10 0.09 0.10
0.00 0.01 0.01 0.01 0.01 0.00 0.00 0.00 0.00 0.00 0.00 0.00 0.00 0.00 0.00 0.00 0.00 0.00 0.00 0.00 0.00 0.00 0.00 0.00 0.00 0.01 0.01 0.01 0.02 0.02 0.03 0.04 0.04 0.05 0.06 0.07 0.06 0.05 0.06 0.07 0.06 0.06 0.06 0.05 0.08 0.08 0.09 0.09 0.10
0.00 0.00 0.00 0.00 0.01 0.01 0.00 0.00 0.00 0.00 0.00 0.00 0.00 0.01 0.01 0.00 0.00 0.00 0.00 0.00 0.00 0.00 0.00 0.00 0.01 0.01 0.01 0.01 0.02 0.03 0.03 0.04 0.04 0.05 0.06 0.05 0.04 0.03 0.03 0.03 0.04 0.05 0.05 0.06 0.06 0.06 0.06 0.07 0.07
0.00 0.00 0.00 0.00 0.01 0.01 0.01 0.00 0.00 0.00 0.00 0.00 0.00 0.01 0.01 0.00 0.00 0.00 0.00 0.00 0.00 0.00 0.00 0.00 0.00 0.01 0.00 0.01 0.01 0.02 0.03 0.04 0.04 0.04 0.04 0.04 0.02 0.01 0.02 0.02 0.03 0.04 0.04 0.05 0.06 0.07 0.07 0.07 0.07
0.00 0.00 0.00 0.00 0.00 0.01 0.01 0.01 0.00 0.00 0.00 0.00 0.01 0.00 0.00 0.00 0.00 0.00 0.00 0.00 0.00 0.00 0.00 0.00 0.00 0.00 0.00 0.01 0.01 0.02 0.02 0.03 0.05 0.05 0.03 0.02 0.02 0.01 0.01 0.02 0.02 0.02 0.02 0.03 0.04 0.05 0.07 0.07 0.07
0.00 0.00 0.00 0.00 0.00 0.00 0.01 0.02 0.00 0.00 0.00 0.00 0.00 0.00 0.00 0.00 0.00 0.00 0.00 0.00 0.00 0.00 0.00 0.00 0.00 0.00 0.00 0.00 0.01 0.01 0.01 0.01 0.03 0.04 0.03 0.01 0.01 0.01 0.01 0.01 0.01 0.01 0.01 0.03 0.05 0.07 0.07 0.07 0.08
MSLP
1002.50 1003.55 1004.93 1006.47 1007.99 1009.31 1010.29 1010.88 1011.11 1011.07 1010.90 1010.74 1010.68 1010.78 1011.02 1011.32 1011.62 1011.83 1011.92 1011.91 1011.85 1011.79 1011.81 1011.94 1012.18 1012.49 1012.80 1013.03 1013.14 1013.11 1012.96 1012.75 1012.54 1012.39 1012.34 1012.39 1012.52 1012.69 1012.84 1012.95 1013.01 1013.02 1013.00 1012.99 1013.00 1013.03 1013.08 1013.11 1013.12
1002.75 1004.03 1005.58 1007.22 1008.76 1010.02 1010.89 1011.34 1011.42 1011.24 1010.96 1010.71 1010.59 1010.63 1010.83 1011.11 1011.39 1011.60 1011.71 1011.74 1011.72 1011.73 1011.81 1012.00 1012.30 1012.64 1012.98 1013.25 1013.39 1013.40 1013.30 1013.14 1012.98 1012.86 1012.83 1012.87 1012.97 1013.08 1013.18 1013.25 1013.28 1013.29 1013.30 1013.33 1013.39 1013.46 1013.52 1013.54 1013.49
1003.15 1004.64 1006.33 1008.03 1009.54 1010.71 1011.45 1011.75 1011.69 1011.39 1011.02 1010.71 1010.55 1010.58 1010.76 1011.02 1011.29 1011.48 1011.59 1011.62 1011.62 1011.66 1011.78 1012.01 1012.34 1012.73 1013.10 1013.41 1013.61 1013.68 1013.66 1013.57 1013.46 1013.39 1013.38 1013.40 1013.46 1013.52 1013.55 1013.56 1013.55 1013.55 1013.56 1013.62 1013.69 1013.77 1013.82 1013.80 1013.71
1003.65 1005.32 1007.11 1008.82 1010.27 1011.32 1011.92 1012.08 1011.90 1011.52 1011.10 1010.78 1010.64 1010.67 1010.85 1011.10 1011.34 1011.51 1011.59 1011.59 1011.58 1011.61 1011.74 1011.99 1012.35 1012.76 1013.18 1013.54 1013.79 1013.94 1013.98 1013.97 1013.93 1013.91 1013.91 1013.94 1013.96 1013.97 1013.95 1013.91 1013.86 1013.83 1013.84 1013.89 1013.97 1014.03 1014.06 1013.99 1013.85
1004.20 1005.98 1007.81 1009.48 1010.84 1011.77 1012.23 1012.28 1012.02 1011.61 1011.21 1010.93 1010.82 1010.90 1011.10 1011.35 1011.57 1011.69 1011.72 1011.67 1011.62 1011.63 1011.74 1011.99 1012.35 1012.78 1013.22 1013.61 1013.91 1014.11 1014.22 1014.27 1014.30 1014.32 1014.35 1014.39 1014.41 1014.39 1014.34 1014.27 1014.20 1014.16 1014.15 1014.19 1014.25 1014.29 1014.28 1014.18 1013.98
1004.73 1006.54 1008.34 1009.94 1011.18 1011.98 1012.33 1012.30 1012.02 1011.64 1011.30 1011.10 1011.09 1011.24 1011.48 1011.73 1011.92 1012.00 1011.97 1011.87 1011.77 1011.73 1011.82 1012.04 1012.39 1012.82 1013.25 1013.64 1013.96 1014.18 1014.33 1014.42 1014.49 1014.56 1014.63 1014.69 1014.73 1014.73 1014.68 1014.61 1014.54 1014.49 1014.48 1014.50 1014.55 1014.56 1014.52 1014.38 1014.16
1005.19 1006.95 1008.65 1010.11 1011.21 1011.89 1012.16 1012.10 1011.86 1011.55 1011.33 1011.27 1011.38 1011.62 1011.92 1012.19 1012.37 1012.40 1012.32 1012.16 1012.01 1011.93 1011.98 1012.17 1012.48 1012.87 1013.27 1013.64 1013.93 1014.14 1014.28 1014.39 1014.48 1014.59 1014.70 1014.80 1014.88 1014.92 1014.92 1014.87 1014.82 1014.78 1014.77 1014.79 1014.82 1014.81 1014.75 1014.59 1014.36
1005.56 1007.19 1008.73 1010.02 1010.97 1011.53 1011.75 1011.70 1011.53 1011.36 1011.30 1011.39 1011.64 1012.00 1012.37 1012.68 1012.84 1012.85 1012.73 1012.53 1012.33 1012.21 1012.22 1012.37 1012.63 1012.97 1013.31 1013.61 1013.84 1014.00 1014.11 1014.20 1014.30 1014.43 1014.58 1014.74 1014.87 1014.97 1015.01 1015.01 1014.99 1014.97 1014.97 1014.98 1014.99 1014.98 1014.90 1014.75 1014.52
1005.83 1007.27 1008.61 1009.70 1010.49 1010.96 1011.15 1011.16 1011.09 1011.08 1011.19 1011.46 1011.87 1012.34 1012.79 1013.14 1013.32 1013.31 1013.17 1012.94 1012.71 1012.56 1012.53 1012.63 1012.84 1013.10 1013.36 1013.58 1013.73 1013.82 1013.87 1013.93 1014.01 1014.15 1014.33 1014.53 1014.72 1014.87 1014.97 1015.02 1015.02 1015.02 1015.01 1015.02 1015.02 1015.00 1014.93 1014.78 1014.57
1006.03 1007.26 1008.37 1009.26 1009.90 1010.29 1010.47 1010.55 1010.62 1010.77 1011.06 1011.50 1012.05 1012.64 1013.16 1013.55 1013.74 1013.74 1013.59 1013.36 1013.12 1012.94 1012.88 1012.93 1013.07 1013.26 1013.43 1013.55 1013.62 1013.63 1013.62 1013.63 1013.70 1013.83 1014.03 1014.26 1014.50 1014.69 1014.83 1014.90 1014.92 1014.92 1014.90 1014.89 1014.88 1014.86 1014.79 1014.67 1014.49
1006.21 1007.22 1008.11 1008.82 1009.32 1009.65 1009.84 1009.99 1010.18 1010.49 1010.94 1011.53 1012.19 1012.86 1013.45 1013.87 1014.09 1014.11 1013.97 1013.73 1013.49 1013.31 1013.22 1013.22 1013.31 1013.42 1013.51 1013.56 1013.54 1013.48 1013.42 1013.39 1013.43 1013.56 1013.77 1014.02 1014.27 1014.48 1014.63 1014.71 1014.73 1014.71 1014.67 1014.64 1014.61 1014.58 1014.52 1014.42 1014.27
1006.43 1007.25 1007.94 1008.48 1008.88 1009.16 1009.37 1009.59 1009.89 1010.31 1010.88 1011.56 1012.30 1013.02 1013.65 1014.09 1014.34 1014.37 1014.25 1014.04 1013.81 1013.62 1013.51 1013.48 1013.51 1013.56 1013.60 1013.58 1013.51 1013.41 1013.31 1013.25 1013.28 1013.40 1013.60 1013.84 1014.09 1014.30 1014.45 1014.51 1014.50 1014.45 1014.38 1014.32 1014.27 1014.23 1014.18 1014.10 1013.97
1006.75 1007.40 1007.94 1008.35 1008.67 1008.92 1009.15 1009.42 1009.78 1010.27 1010.89 1011.61 1012.38 1013.11 1013.74 1014.20 1014.46 1014.52 1014.43 1014.24 1014.03 1013.85 1013.72 1013.67 1013.66 1013.67 1013.67 1013.62 1013.52 1013.41 1013.30 1013.24 1013.26 1013.37 1013.55 1013.78 1014.01 1014.20 1014.32 1014.35 1014.31 1014.23 1014.13 1014.03 1013.96 1013.91 1013.86 1013.79 1013.69
1007.20 1007.72 1008.15 1008.48 1008.74 1008.97 1009.21 1009.51 1009.89 1010.39 1011.00 1011.69 1012.42 1013.12 1013.72 1014.18 1014.45 1014.55 1014.50 1014.35 1014.17 1014.00 1013.87 1013.79 1013.76 1013.75 1013.73 1013.67 1013.59 1013.49 1013.39 1013.35 1013.37 1013.46 1013.63 1013.82 1014.02 1014.18 1014.26 1014.27 1014.21 1014.10 1013.98 1013.87 1013.78 1013.72 1013.67 1013.61 1013.51
1007.76 1008.20 1008.56 1008.85 1009.09 1009.32 1009.56 1009.85 1010.20 1010.65 1011.18 1011.79 1012.43 1013.06 1013.62 1014.06 1014.35 1014.49 1014.49 1014.40 1014.25 1014.10 1013.97 1013.88 1013.83 1013.81 1013.78 1013.75 1013.69 1013.63 1013.57 1013.54 1013.57 1013.65 1013.78 1013.95 1014.10 1014.23 1014.29 1014.29 1014.22 1014.11 1013.99 1013.88 1013.79 1013.72 1013.66 1013.60 1013.51
1008.39 1008.79 1009.13 1009.42 1009.68 1009.92 1010.16 1010.42 1010.70 1011.05 1011.45 1011.92 1012.43 1012.96 1013.45 1013.88 1014.20 1014.39 1014.46 1014.43 1014.33 1014.21 1014.08 1013.98 1013.92 1013.89 1013.88 1013.86 1013.85 1013.82 1013.81 1013.80 1013.83 1013.90 1014.00 1014.12 1014.24 1014.33 1014.38 1014.38 1014.34 1014.26 1014.16 1014.07 1013.99 1013.92 1013.86 1013.79 1013.70
1009.02 1009.42 1009.78 1010.12 1010.43 1010.71 1010.95 1011.16 1011.35 1011.55 1011.79 1012.09 1012.44 1012.85 1013.28 1013.70 1014.06 1014.32 1014.48 1014.52 1014.48 1014.38 1014.26 1014.16 1014.08 1014.04 1014.03 1014.05 1014.07 1014.09 1014.11 1014.12 1014.15 1014.19 1014.25 1014.32 1014.40 1014.47 1014.52 1014.54 1014.54 1014.51 1014.46 1014.41 1014.35 1014.29 1014.22 1014.14 1014.05
1009.58 1010.01 1010.45 1010.88 1011.28 1011.62 1011.88 1012.05 1012.13 1012.17 1012.22 1012.31 1012.50 1012.79 1013.16 1013.57 1013.98 1014.33 1014.58 1014.72 1014.74 1014.68 1014.56 1014.44 1014.34 1014.29 1014.28 1014.31 1014.37 1014.43 1014.47 1014.50 1014.51 1014.52 1014.53 1014.55 1014.58 1014.63 1014.69 1014.75 1014.80 1014.83 1014.84 1014.83 1014.80 1014.74 1014.67 1014.58 1014.47
1010.00 1010.51 1011.06 1011.64 1012.17 1012.61 1012.91 1013.03 1013.01 1012.88 1012.73 1012.63 1012.65 1012.81 1013.13 1013.55 1014.02 1014.46 1014.82 1015.05 1015.14 1015.10 1014.99 1014.85 1014.72 1014.64 1014.63 1014.67 1014.75 1014.84 1014.91 1014.95 1014.94 1014.91 1014.87 1014.83 1014.82 1014.85 1014.90 1014.99 1015.09 1015.18 1015.25 1015.28 1015.27 1015.22 1015.12 1015.01 1014.90
1010.26 1010.88 1011.60 1012.36 1013.06 1013.63 1013.98 1014.09 1013.97 1013.68 1013.34 1013.05 1012.90 1012.95 1013.21 1013.65 1014.18 1014.72 1015.18 1015.50 1015.65 1015.64 1015.52 1015.35 1015.19 1015.08 1015.06 1015.11 1015.21 1015.33 1015.42 1015.46 1015.45 1015.38 1015.29 1015.19 1015.13 1015.12 1015.17 1015.27 1015.41 1015.54 1015.65 1015.71 1015.70 1015.64 1015.53 1015.39 1015.26
1010.37 1011.14 1012.05 1013.03 1013.93 1014.65 1015.07 1015.17 1014.96 1014.53 1014.01 1013.54 1013.24 1013.19 1013.40 1013.85 1014.44 1015.07 1015.62 1016.02 1016.22 1016.23 1016.10 1015.90 1015.70 1015.56 1015.52 1015.58 1015.70 1015.85 1015.98 1016.04 1016.02 1015.94 1015.80 1015.65 1015.54 1015.49 1015.51 1015.60 1015.74 1015.90 1016.02 1016.09 1016.07 1015.99 1015.84 1015.67 1015.53
1010.39 1011.32 1012.45 1013.65 1014.76 1015.62 1016.12 1016.22 1015.94 1015.39 1014.71 1014.08 1013.64 1013.49 1013.66 1014.11 1014.75 1015.44 1016.07 1016.52 1016.76 1016.78 1016.64 1016.40 1016.17 1016.01 1015.96 1016.03 1016.18 1016.38 1016.55 1016.65 1016.65 1016.55 1016.39 1016.20 1016.04 1015.94 1015.92 1015.99 1016.11 1016.25 1016.37 1016.42 1016.38 1016.26 1016.08 1015.88 1015.72
1010.38 1011.49 1012.83 1014.23 1015.52 1016.51 1017.08 1017.18 1016.84 1016.17 1015.35 1014.58 1014.03 1013.79 1013.92 1014.36 1015.03 1015.77 1016.44 1016.94 1017.20 1017.23 1017.07 1016.80 1016.54 1016.36 1016.32 1016.41 1016.61 1016.86 1017.09 1017.24 1017.27 1017.19 1017.02 1016.81 1016.60 1016.45 1016.39 1016.41 1016.50 1016.61 1016.70 1016.72 1016.65 1016.50 1016.29 1016.05 1015.87
1010.43 1011.69 1013.20 1014.77 1016.19 1017.27 1017.88 1017.97 1017.56 1016.80 1015.87 1014.99 1014.34 1014.03 1014.10 1014.54 1015.21 1015.97 1016.68 1017.20 1017.48 1017.51 1017.34 1017.06 1016.79 1016.61 1016.57 1016.69 1016.94 1017.25 1017.54 1017.76 1017.84 1017.80 1017.64 1017.41 1017.18 1016.99 1016.88 1016.86 1016.90 1016.97 1017.02 1017.02 1016.92 1016.74 1016.50 1016.25 1016.04
1010.58 1011.95 1013.57 1015.23 1016.72 1017.84 1018.45 1018.50 1018.05 1017.20 1016.20 1015.23 1014.50 1014.14 1014.18 1014.59 1015.26 1016.03 1016.74 1017.28 1017.57 1017.61 1017.45 1017.17 1016.91 1016.74 1016.73 1016.88 1017.18 1017.55 1017.90 1018.18 1018.32 1018.32 1018.18 1017.96 1017.72 1017.50 1017.36 1017.30 1017.30 1017.34 1017.36 1017.34 1017.23 1017.04 1016.79 1016.52 1016.30
1010.84 1012.26 1013.91 1015.58 1017.07 1018.16 1018.73 1018.73 1018.22 1017.33 1016.28 1015.27 1014.50 1014.10 1014.12 1014.50 1015.15 1015.92 1016.64 1017.19 1017.50 1017.55 1017.42 1017.17 1016.93 1016.79 1016.82 1017.01 1017.35 1017.76 1018.17 1018.50 1018.68 1018.72 1018.62 1018.42 1018.18 1017.95 1017.79 1017.71 1017.69 1017.70 1017.72 1017.68 1017.58 1017.40 1017.16 1016.90 1016.67
1011.20 1012.59 1014.19 1015.78 1017.18 1018.18 1018.67 1018.62 1018.07 1017.17 1016.11 1015.10 1014.34 1013.93 1013.93 1014.30 1014.93 1015.68 1016.39 1016.95 1017.29 1017.38 1017.30 1017.10 1016.92 1016.83 1016.89 1017.11 1017.48 1017.92 1018.35 1018.71 1018.93 1019.00 1018.92 1018.75 1018.53 1018.32 1018.16 1018.07 1018.05 1018.07 1018.08 1018.07 1017.99 1017.83 1017.62 1017.38 1017.17
1011.58 1012.88 1014.34 1015.78 1017.02 1017.89 1018.29 1018.18 1017.62 1016.73 1015.72 1014.76 1014.04 1013.66 1013.66 1014.01 1014.62 1015.35 1016.05 1016.62 1016.99 1017.14 1017.12 1017.01 1016.90 1016.87 1016.98 1017.24 1017.62 1018.06 1018.50 1018.86 1019.08 1019.17 1019.12 1018.97 1018.78 1018.60 1018.46 1018.39 1018.39 1018.42 1018.46 1018.48 1018.43 1018.32 1018.16 1017.96 1017.76
1011.95 1013.08 1014.33 1015.55 1016.59 1017.30 1017.59 1017.44 1016.91 1016.09 1015.18 1014.32 1013.68 1013.35 1013.37 1013.71 1014.28 1014.97 1015.65 1016.22 1016.62 1016.84 1016.91 1016.90 1016.88 1016.94 1017.10 1017.38 1017.77 1018.20 1018.61 1018.95 1019.17 1019.26 1019.23 1019.12 1018.96 1018.82 1018.72 1018.69 1018.71 1018.78 1018.85 1018.90 1018.90 1018.84 1018.72 1018.57 1018.41
1012.23 1013.14 1014.14 1015.11 1015.93 1016.47 1016.67 1016.52 1016.04 1015.35 1014.57 1013.86 1013.33 1013.07 1013.11 1013.42 1013.95 1014.59 1015.23 1015.78 1016.21 1016.49 1016.66 1016.75 1016.84 1016.98 1017.21 1017.52 1017.91 1018.32 1018.70 1019.01 1019.22 1019.30 1019.29 1019.21 1019.11 1019.01 1018.97 1018.98 1019.04 1019.14 1019.24 1019.32 1019.36 1019.34 1019.27 1019.17 1019.05
Thickness
5857 5857 5854 5842 5822 5807 5793 5798 5803 5800 5800 5806 5807 5799 5785 5778 5766 5749 5770 5780 5779 5775 5770 5767 5766 5765 5765 5764 5764 5764 5764 5764 5765 5765 5765 5765 5764 5764 5764 5764 5763 5763 5762 5761 5761 5760 5760 5759 5758
5867 5863 5851 5838 5817 5792 5788 5802 5800 5802 5807 5811 5806 5797 5785 5777 5779 5773 5775 5780 5780 5776 5770 5766 5764 5764 5764 5763 5763 5762 5762 5763 5763 5764 5764 5764 5763 5762 5762 5762 5762 5761 5761 5760 5759 5759 5758 5758 5757
5869 5866 5847 5837 5816 5796 5791 5805 5806 5811 5816 5809 5798 5794 5784 5775 5778 5777 5780 5783 5781 5776 5769 5765 5763 5763 5762 5761 5761 5761 5761 5761 5761 5762 5762 5762 5762 5761 5761 5760 5760 5760 5759 5759 5758 5758 5757 5756 5756
5867 5862 5855 5832 5808 5811 5810 5813 5816 5810 5811 5810 5800 5784 5781 5787 5784 5783 5786 5785 5781 5776 5769 5764 5763 5762 5761 5760 5759 5759 5760 5759 5760 5760 5760 5760 5760 5760 5759 5759 5758 5758 5758 5757 5757 5756 5756 5755 5755
5871 5859 5837 5819 5812 5819 5824 5826 5823 5810 5805 5802 5794 5775 5772 5785 5790 5789 5787 5784 5780 5775 5769 5764 5762 5761 5761 5760 5759 5758 5758 5759 5759 5759 5758 5758 5758 5758 5758 5757 5757 5757 5757 5756 5756 5756 5755 5755 5755
5866 5859 5829 5810 5812 5822 5827 5831 5824 5810 5804 5800 5791 5777 5772 5786 5788 5787 5787 5784 5781 5776 5770 5764 5762 5761 5760 5760 5759 5758 5757 5758 5758 5758 5758 5757 5757 5757 5757 5756 5756 5756 5756 5756 5756 5756 5755 5755 5755
5866 5852 5833 5823 5815 5816 5825 5834 5823 5812 5803 5803 5801 5780 5774 5782 5787 5788 5787 5785 5782 5777 5772 5767 5764 5762 5761 5760 5759 5758 5758 5758 5758 5758 5757 5757 5756 5756 5756 5755 5755 5756 5756 5756 5756 5756 5756 5756 5756
5890 5864 5839 5830 5819 5815 5831 5834 5830 5820 5810 5818 5812 5784 5772 5782 5791 5789 5786 5783 5780 5777 5774 5771 5768 5765 5763 5761 5759 5759 5759 5758 5758 5758 5758 5757 5757 5756 5756 5755 5755 5756 5756 5756 5756 5756 5756 5756 5757
5898 5855 5833 5832 5826 5824 5836 5830 5830 5832 5820 5815 5813 5800 5792 5794 5792 5786 5780 5778 5776 5775 5774 5773 5771 5769 5768 5765 5762 5761 5760 5759 5759 5759 5759 5759 5759 5758 5757 5756 5756 5756 5756 5757 5757 5756 5756 5757 5758
5884 5846 5842 5851 5848 5839 5838 5832 5830 5823 5810 5803 5800 5800 5799 5794 5788 5780 5776 5774 5772 5772 5774 5775 5773 5772 5771 5769 5765 5764 5763 5761 5761 5761 5761 5761 5761 5760 5760 5757 5757 5757 5758 5758 5758 5758 5757 5758 5759
5879 5857 5859 5860 5860 5853 5842 5838 5841 5824 5806 5803 5796 5795 5796 5792 5786 5781 5779 5777 5775 5776 5775 5775 5774 5773 5773 5771 5769 5768 5766 5764 5764 5763 5763 5763 5762 5761 5760 5758 5758 5758 5759 5760 5760 5760 5760 5761 5762
5875 5872 5870 5865 5866 5857 5848 5843 5837 5828 5818 5820 5812 5806 5799 5793 5789 5785 5781 5780 5778 5777 5777 5776 5775 5774 5773 5772 5771 5770 5769 5767 5766 5765 5765 5764 5764 5763 5762 5761 5761 5761 5762 5762 5763 5763 5763 5764 5765
5872 5870 5873 5871 5867 5861 5854 5842 5834 5827 5829 5826 5817 5809 5802 5797 5793 5792 5789 5786 5783 5780 5778 5777 5776 5774 5773 5772 5772 5772 5772 5770 5768 5767 5766 5766 5765 5764 5764 5763 5764 5764 5765 5764 5763 5764 5764 5764 5764
5875 5875 5872 5870 5864 5858 5846 5838 5832 5826 5831 5822 5815 5808 5806 5801 5797 5794 5791 5787 5785 5783 5781 5780 5778 5775 5773 5772 5772 5773 5773 5771 5770 5769 5768 5767 5766 5765 5764 5764 5764 5765 5765 5765 5764 5764 5763 5763 5763
5881 5866 5862 5866 5864 5859 5849 5827 5828 5833 5831 5820 5815 5812 5809 5806 5804 5798 5795 5791 5790 5787 5785 5782 5780 5777 5775 5774 5774 5775 5774 5773 5772 5770 5768 5767 5766 5765 5765 5763 5763 5764 5764 5764 5764 5763 5763 5762 5761
5874 5856 5843 5860 5865 5863 5843 5813 5831 5841 5831 5820 5818 5815 5810 5808 5807 5805 5801 5797 5795 5791 5787 5786 5786 5780 5777 5776 5775 5776 5775 5774 5773 5771 5769 5768 5766 5765 5764 5764 5763 5764 5765 5764 5763 5762 5760 5760 5759
5857 5844 5845 5857 5869 5865 5849 5826 5837 5846 5835 5824 5821 5819 5814 5810 5810 5809 5806 5802 5799 5795 5790 5787 5786 5782 5780 5778 5777 5776 5775 5774 5774 5772 5770 5769 5767 5766 5765 5765 5764 5764 5764 5764 5763 5762 5760 5757 5757
5843 5851 5853 5854 5866 5864 5850 5840 5843 5848 5841 5831 5827 5823 5819 5814 5812 5813 5811 5808 5803 5799 5794 5790 5787 5785 5782 5780 5778 5776 5776 5775 5774 5773 5771 5770 5769 5768 5766 5766 5765 5765 5764 5762 5761 5760 5759 5757 5756
5865 5858 5852 5860 5872 5863 5851 5845 5846 5850 5845 5837 5832 5828 5823 5820 5821 5819 5815 5812 5806 5801 5796 5792 5789 5786 5784 5781 5777 5775 5773 5775 5774 5774 5772 5770 5769 5769 5767 5766 5766 5765 5763 5761 5761 5758 5756 5755 5755
5867 5857 5857 5864 5871 5862 5850 5847 5853 5854 5850 5847 5840 5834 5830 5825 5822 5820 5817 5814 5809 5803 5799 5795 5792 5789 5786 5784 5782 5779 5778 5777 5776 5775 5773 5771 5770 5770 5769 5766 5765 5764 5762 5760 5759 5758 5754 5753 5755
5863 5860 5860 5857 5864 5864 5850 5837 5845 5853 5858 5856 5852 5847 5841 5833 5826 5822 5819 5816 5813 5807 5803 5800 5796 5792 5789 5787 5784 5782 5779 5777 5776 5773 5772 5772 5771 5770 5768 5767 5766 5764 5763 5760 5759 5757 5754 5751 5753
5853 5874 5871 5863 5847 5837 5844 5815 5836 5848 5849 5851 5852 5851 5847 5843 5836 5830 5825 5820 5817 5814 5810 5805 5800 5796 5792 5790 5786 5781 5776 5773 5774 5774 5773 5773 5772 5770 5769 5767 5765 5764 5763 5761 5760 5759 5757 5753 5750
5865 5879 5872 5863 5851 5836 5841 5825 5831 5853 5843 5849 5855 5856 5854 5851 5845 5837 5832 5827 5824 5821 5815 5809 5804 5799 5796 5792 5788 5784 5780 5778 5778 5777 5774 5772 5772 5770 5769 5768 5765 5764 5762 5761 5760 5759 5757 5755 5752
5876 5869 5865 5862 5851 5821 5837 5830 5826 5849 5853 5856 5860 5861 5860 5857 5852 5845 5840 5834 5829 5826 5820 5814 5806 5801 5798 5794 5790 5786 5782 5779 5777 5775 5772 5771 5771 5770 5769 5767 5765 5763 5762 5760 5759 5758 5756 5754 5752
5863 5841 5818 5812 5814 5818 5850 5840 5839 5864 5873 5870 5865 5865 5866 5863 5856 5849 5842 5835 5831 5827 5822 5817 5809 5803 5800 5796 5792 5788 5785 5781 5778 5775 5773 5771 5769 5768 5767 5766 5764 5762 5761 5760 5758 5756 5754 5753 5751
5851 5842 5812 5797 5803 5824 5844 5837 5853 5879 5882 5881 5876 5873 5869 5863 5857 5853 5847 5841 5835 5830 5825 5819 5812 5806 5802 5797 5793 5790 5787 5783 5780 5777 5775 5772 5770 5769 5767 5765 5763 5761 5759 5758 5756 5754 5753 5751 5749
5844 5843 5855 5835 5827 5817 5832 5845 5861 5880 5876 5875 5871 5869 5865 5864 5861 5857 5852 5846 5840 5834 5828 5823 5815 5808 5804 5800 5795 5791 5787 5784 5781 5779 5776 5773 5771 5770 5767 5764 5761 5759 5757 5755 5753 5750 5749 5747 5746
5859 5854 5845 5828 5804 5793 5815 5831 5841 5856 5862 5867 5866 5865 5863 5865 5863 5858 5853 5849 5844 5839 5832 5826 5819 5811 5806 5802 5797 5793 5788 5785 5782 5778 5774 5772 5770 5768 5765 5762 5759 5757 5754 5752 5750 5747 5745 5743 5741
5845 5845 5842 5837 5829 5806 5797 5818 5864 5864 5867 5866 5864 5866 5865 5865 5862 5858 5855 5852 5847 5841 5834 5826 5820 5813 5807 5802 5797 5793 5789 5785 5781 5777 5774 5771 5769 5766 5763 5760 5757 5754 5751 5748 5746 5743 5741 5739 5737
5852 5846 5841 5820 5816 5820 5810 5819 5872 5873 5874 5872 5869 5868 5868 5865 5862 5860 5855 5851 5845 5838 5833 5827 5821 5814 5808 5803 5798 5793 5789 5785 5780 5776 5773 5771 5767 5764 5761 5758 5755 5751 5748 5746 5742 5739 5737 5734 5732